TimeCDT,TemperatureF,Dew PointF,Humidity,Sea Level PressureIn,VisibilityMPH,Wind Direction,Wind SpeedMPH,Gust SpeedMPH,PrecipitationIn,Events,Conditions,WindDirDegrees,DateUTC
12:53 AM,66.9,61.0,81,30.14,10.0,ESE,5.8,-,N/A,,Clear,120,2013-08-17 05:53:00
1:53 AM,64.9,60.1,84,30.14,10.0,SE,4.6,-,N/A,,Clear,140,2013-08-17 06:53:00
2:53 AM,64.0,60.1,87,30.13,10.0,SSE,6.9,-,N/A,,Clear,150,2013-08-17 07:53:00
3:53 AM,63.0,59.0,87,30.13,10.0,SE,6.9,-,N/A,,Clear,140,2013-08-17 08:53:00
4:53 AM,62.1,59.0,90,30.14,10.0,SSE,3.5,-,N/A,,Clear,150,2013-08-17 09:53:00
5:53 AM,64.0,60.1,87,30.14,10.0,SE,5.8,-,N/A,,Overcast,130,2013-08-17 10:53:00
6:53 AM,63.0,60.1,90,30.15,10.0,SSE,6.9,-,N/A,,Overcast,150,2013-08-17 11:53:00
7:53 AM,64.0,60.1,87,30.16,10.0,SSE,5.8,-,N/A,,Mostly Cloudy,150,2013-08-17 12:53:00
8:53 AM,68.0,61.0,78,30.16,10.0,SSE,6.9,-,N/A,,Partly Cloudy,160,2013-08-17 13:53:00
9:53 AM,72.0,62.1,71,30.16,10.0,SSE,5.8,-,N/A,,Clear,160,2013-08-17 14:53:00
10:53 AM,75.0,62.1,64,30.16,10.0,South,9.2,-,N/A,,Clear,170,2013-08-17 15:53:00
11:53 AM,78.1,63.0,60,30.15,10.0,South,6.9,-,N/A,,Scattered Clouds,180,2013-08-17 16:53:00
12:53 PM,78.1,63.0,60,30.13,10.0,SSE,6.9,-,N/A,,Mostly Cloudy,160,2013-08-17 17:53:00
1:53 PM,80.1,62.1,54,30.11,10.0,ESE,10.4,-,N/A,,Scattered Clouds,110,2013-08-17 18:53:00
2:53 PM,81.0,62.1,52,30.09,10.0,ESE,12.7,17.3,N/A,,Partly Cloudy,120,2013-08-17 19:53:00
3:53 PM,79.0,60.1,52,30.09,10.0,SE,9.2,-,N/A,,Partly Cloudy,130,2013-08-17 20:53:00
4:53 PM,81.0,60.1,49,30.08,10.0,SE,12.7,-,N/A,,Scattered Clouds,130,2013-08-17 21:53:00
5:53 PM,79.0,60.1,52,30.07,10.0,SE,10.4,-,N/A,,Clear,130,2013-08-17 22:53:00
6:53 PM,78.1,59.0,52,30.06,10.0,SE,10.4,-,N/A,,Clear,130,2013-08-17 23:53:00
7:53 PM,75.0,60.1,60,30.07,10.0,ESE,5.8,-,N/A,,Clear,120,2013-08-18 00:53:00
8:53 PM,73.0,59.0,61,30.07,10.0,ESE,5.8,-,N/A,,Scattered Clouds,110,2013-08-18 01:53:00
9:53 PM,71.1,59.0,66,30.09,10.0,ESE,8.1,-,N/A,,Mostly Cloudy,120,2013-08-18 02:53:00
10:53 PM,69.1,59.0,70,30.10,10.0,SE,8.1,-,N/A,,Mostly Cloudy,130,2013-08-18 03:53:00
11:53 PM,66.0,57.9,75,30.11,10.0,SE,8.1,-,N/A,,Scattered Clouds,140,2013-08-18 04:53:00